Погода в Новых Шимкусах

Россия / Чувашская Республика     55°09′24″N   47°45′58″E
темп.,
°C
ветер,
м/с
пор.,
м/с
влажн.,
%
обл.,
%
осадки,
мм/ч
давл.,
гПа
погр.,
м
21 июня, пн
пн2100:00+19з22894 0.0 102212
03:00+18з22910 0.0 102217
06:00+21з23810 0.0 1022142
09:00+26з33661 0.0 1022593
12:00+29з33512 0.0 10221466
15:00+30зсз23475 0.0 10211770
18:00+28с23683 0.0 1020137
21:00+23зсз228198 0.0 102111
22 июня, вт
вт2200:00+21з22896 0.0 102216
03:00+20зсз22900 0.0 102222
06:00+23зсз34822 0.0 1022169
09:00+27зсз23635 0.0 1022561
12:00+29зсз225330 0.0 10221356
15:00+30сз124892 0.0 10211841
18:00+27ссз247031 0.2 1021105
21:00+21ююз359097 1.1 102277
23 июня, ср
ср2300:00+21сз2284100 0.0 102124
03:00+20зсз228780 0.0 102124
06:00+22зсз24835 0.0 1021153
09:00+27зсз33630 0.0 1021574
12:00+29сз44500 0.1 10201676
15:00+30ссз34471 0.1 10201724
18:00+28зсз36660 0.0 1018232
21:00+22ссв228589 1.8 102025
24 июня, чт
чт2400:00+20юз2287100 0.1 101917
03:00+19зсз338497 0.8 101941
06:00+22зсз127918 0.0 1018112
09:00+26ссз236495 0.0 1018510
12:00+29ссв1254100 0.0 1018960
15:00+30с1253100 0.0 10181295
18:00+29юз11625 0.0 1016826
21:00+23сз017511 0.2 101611
25 июня, пт
пт2500:00+20з348599 0.9 101660
03:00+19зсз228738 0.9 101624
06:00+22зюз2281100 0.0 1016130
09:00+27з33665 0.0 1016505
12:00+30з335398 0.0 10151181
15:00+31ссз33518 0.0 10141485
18:00+29зюз3367100 0.1 101377
21:00+21з227077 1.0 101321